Location: Central Falls
(41.8900°N, 71.3929°W)
Time: 03:05:26
(UTC+00:00)

Tiros 1 - Pass Details

Date: 15 December 2023
Orbit: 625 x 658 km, 48.4° (Epoch: 01 March)

Event Time Altitude Azimuth Distance (km) Brightness Sun altitude
Rises 08:25:01 0° 288° (WNW) 2,975 - -40.2°
Reaches altitude 10° 08:27:30 10° 296° (WNW) 2,067 - -39.7°
Maximum altitude 08:31:58 38° 5° (N) 1,002 - -38.9°
Exits shadow 08:35:32 15° 69° (ENE) 1,760 9.9 -38.2°
Drops below altitude 10° 08:36:27 10° 74° (ENE) 2,073 10.4 -38.0°
Sets 08:38:56 0° 83° (E) 2,985 11.5 -37.6°
